HULIANWANG DIGUI-18

导读

HULIANWANG DIGUI-18即中国互联网低轨卫星,于北京时间2025年2月11日在文昌航天发射场,由长征八号改运载火箭发射升空,是互联网低轨02组组网卫星之一,目前卫星处于在轨运行状态。该卫星属于低轨互联网星座,旨在构建全球覆盖的卫星通信网络,为地面提供泛在互联的网络接入服务,助力天地一体化信息网络建设。

基本信息
目录编号:
62978
目录名称:
HULIANWANG DIGUI-18
国际标识:
2025-030H
轨道中心:
EARTH
卫星名称:
HULIANWANG DIGUI-18
卫星全名:
HULIANWANG DIGUI-18
卫星状态:
在轨 (已飞行486 天)
发射日期:
2025-02-11 UTC
国别 :
中国 (CN)
星等 :
--
轨道信息
数据来源 国际轨道数据
星历时间: 2026-06-12T13:09:36+0800
14小时前
查看轨道信息
半长轴: 7527.446km
偏心率: 0.0001167
轨道倾角: 50.006°
近地点辐角 156.608°
升交点赤经 253.365°
平近点角 203.484°
近地点: 1148.43km
远地点: 1150.188km
周期: 108.326分钟
每日圈数: 13.293254
详细信息
使用方式:
暂无
2D轨道图
3D轨道图
轨道高度分析图
轨道倾角分析图
轨道综合分析图
查看轨道综合分析图